Theta_e
314 319 321 323 322 321 320 318 319 321 322 323 327 329 324 322 321 321 321 313 306 313 321 317 315 315 314 313 311 311 311 309 309 310 311 314 315 316 317 317 318 318 318 318 317 317 316 315 315 314 313 312 312 311 311 311 311 311 312 312 312 313 313 313 313 317 321 322 321 321 322 322 322 321 323 326 326 325 325 323 323 322 321 324 324 323
316 321 323 322 318 317 319 318 318 319 320 323 323 321 321 322 322 319 317 313 308 312 321 318 315 315 314 313 311 309 309 309 309 310 311 314 315 316 316 317 318 318 318 318 317 317 317 316 315 314 314 313 312 312 311 311 311 311 311 312 312 313 313 312 314 316 318 321 322 322 323 323 323 322 323 325 325 324 324 324 323 322 322 324 323 323
319 322 322 316 310 312 317 316 318 319 320 325 322 319 321 321 320 317 314 313 311 312 320 321 316 315 313 312 311 309 309 310 311 312 312 314 314 315 316 317 317 317 317 317 317 317 317 316 316 314 314 313 312 311 311 311 311 311 312 312 312 312 312 313 315 314 317 323 324 322 324 325 323 322 324 325 323 322 321 322 323 321 320 322 322 322
321 324 319 309 308 315 318 314 317 318 319 323 322 320 322 320 319 319 316 314 312 311 317 320 316 313 313 312 312 311 310 311 312 313 313 313 313 315 317 317 316 316 317 317 316 316 316 315 315 315 314 313 313 311 311 311 311 311 311 311 312 312 312 313 313 314 318 322 322 322 323 323 321 321 322 322 321 321 320 320 321 319 319 321 320 319
320 318 310 307 311 319 320 315 316 318 318 321 320 320 322 321 319 318 318 316 316 314 312 315 317 319 318 316 316 313 310 311 312 312 312 313 315 316 317 316 316 317 317 317 317 316 315 315 315 314 314 313 313 312 312 312 311 311 311 311 312 311 312 313 313 316 320 321 322 323 321 320 321 322 322 321 321 321 320 319 318 318 319 320 319 318
319 312 309 313 314 317 321 319 319 320 320 323 322 319 319 321 320 317 318 318 321 322 315 313 320 329 329 325 322 320 319 318 314 311 312 315 317 317 317 318 318 318 318 318 318 317 316 314 313 313 313 313 313 313 313 312 311 310 311 311 311 311 312 312 312 315 319 319 319 319 319 321 322 322 322 322 322 321 320 318 317 318 319 319 319 318
316 310 312 321 318 316 318 317 319 318 319 322 320 317 315 315 317 317 317 318 323 326 316 312 318 325 327 325 322 323 324 321 315 312 312 314 316 317 317 318 318 318 318 318 318 317 316 315 314 313 313 313 313 313 312 311 310 310 311 311 311 311 312 312 312 314 316 318 318 318 320 322 321 320 322 322 321 320 319 317 317 318 319 319 319 318
314 312 314 320 320 318 317 318 319 315 319 324 316 315 316 315 318 319 317 318 322 322 316 315 320 321 321 321 321 323 323 319 317 317 314 311 314 316 317 317 318 318 318 318 318 317 317 316 316 314 313 313 312 312 311 311 310 310 310 310 310 311 312 313 313 313 316 319 320 321 320 319 318 319 321 321 320 318 317 316 317 319 319 318 317 316
313 318 317 316 318 317 318 322 320 314 319 321 312 313 317 317 320 321 321 321 320 320 318 317 319 320 323 324 322 322 323 321 321 323 318 313 313 315 316 317 317 318 317 318 318 318 318 317 316 314 313 312 311 311 311 311 310 309 310 310 310 311 312 314 313 313 316 320 321 320 318 317 319 320 321 320 319 317 315 317 318 318 317 316 316 314
311 315 314 315 318 318 319 318 313 315 318 313 307 312 315 316 319 320 323 324 323 323 320 319 319 319 323 325 322 321 322 323 321 321 317 313 313 315 317 318 317 318 318 318 318 318 318 317 315 313 312 311 310 311 310 310 310 309 310 310 310 311 312 313 313 313 315 318 320 319 317 317 319 320 320 319 318 316 315 317 317 317 316 315 313 312
310 310 309 313 315 314 315 311 307 311 312 308 313 320 319 320 321 321 323 321 324 326 319 318 321 319 320 324 324 321 323 326 323 322 321 315 314 316 318 318 317 318 318 318 319 318 318 317 315 313 311 311 310 310 310 309 309 309 310 310 310 310 311 312 313 314 314 314 316 317 317 317 318 318 319 318 317 315 315 316 316 316 315 312 310 308
310 313 313 312 311 310 313 313 308 307 307 312 326 327 320 323 322 321 323 321 324 325 318 315 317 316 319 324 324 321 320 322 322 325 328 321 317 317 318 318 317 317 317 318 318 318 318 317 316 315 312 311 310 309 310 309 309 309 309 310 310 311 310 310 313 314 314 314 315 317 318 319 319 319 318 318 316 314 314 315 315 315 314 310 307 303
314 316 314 311 310 311 318 320 313 311 311 317 326 323 319 323 321 320 325 322 323 322 314 312 315 315 317 320 320 319 319 319 314 316 320 317 316 318 319 318 317 317 316 317 317 317 318 317 317 316 314 312 311 310 310 309 309 309 309 310 310 311 310 310 313 314 313 314 315 316 318 318 319 319 318 318 317 314 314 314 315 315 313 308 304 301
317 316 312 313 313 312 317 320 318 317 316 318 322 322 321 322 321 323 324 319 319 319 313 309 314 318 319 319 319 317 317 317 312 311 313 313 315 317 317 318 317 317 316 316 317 317 317 317 316 316 315 313 312 310 310 309 309 309 309 310 310 310 309 309 311 312 313 314 314 315 317 318 317 317 316 316 316 314 313 313 314 315 312 306 302 300
318 317 315 316 315 314 315 315 319 320 316 316 319 320 321 324 323 324 326 324 320 321 317 311 314 324 325 322 319 313 311 313 312 313 314 313 314 316 316 316 316 316 316 316 316 316 316 316 315 315 314 313 312 311 310 310 309 309 309 310 310 310 310 309 309 312 315 316 315 315 317 318 317 316 316 315 314 313 313 313 313 314 311 304 301 299
315 318 318 313 311 313 315 313 316 318 316 316 318 318 319 322 322 319 318 320 320 321 322 317 318 323 323 321 317 312 313 313 311 311 312 313 316 316 315 316 315 316 317 316 316 316 316 315 314 314 314 313 312 311 310 310 310 309 309 309 310 310 310 309 309 312 316 316 315 315 317 317 316 315 315 314 313 312 312 313 313 314 309 302 300 299
315 318 315 310 310 312 312 312 312 314 316 316 316 319 317 316 323 322 313 310 312 316 320 320 320 319 319 320 317 317 320 318 313 311 310 313 316 315 315 316 316 317 317 316 316 316 315 315 314 314 314 313 312 312 311 311 310 310 309 309 310 310 310 309 309 312 316 316 315 315 316 316 315 314 313 313 311 311 312 313 314 313 307 301 299 298
318 319 314 311 314 311 307 310 310 308 313 318 319 318 314 313 320 325 319 317 317 319 322 322 320 317 318 319 318 317 318 318 318 316 311 312 314 312 314 317 317 317 317 316 317 316 315 315 314 314 313 313 313 312 311 310 310 310 309 309 310 310 310 309 309 311 314 316 316 315 315 315 314 313 312 311 310 310 311 312 313 311 305 300 298 298
316 317 316 310 313 312 308 312 314 310 309 315 318 315 316 319 321 320 320 323 323 322 325 326 320 317 318 319 319 319 321 324 322 319 316 314 311 310 315 318 317 316 317 317 317 316 316 315 314 314 313 313 312 311 310 309 309 309 308 308 309 310 310 310 309 310 313 315 316 315 314 314 313 312 312 311 310 310 311 312 312 309 304 299 298 297
315 315 318 310 309 312 312 314 318 316 311 311 313 312 315 321 322 320 320 321 322 322 324 327 325 320 318 323 323 320 323 326 324 324 326 318 311 313 318 319 318 317 317 318 317 317 316 315 314 314 313 313 312 311 310 309 308 309 308 308 309 309 310 310 310 310 311 313 314 314 314 314 312 312 312 310 310 310 311 311 311 308 303 299 297 297
315 313 316 313 310 313 317 316 316 317 315 314 316 315 315 317 318 320 319 317 321 324 324 325 325 318 317 325 326 320 321 322 321 325 326 317 313 317 320 318 318 317 317 318 317 317 317 315 315 314 313 312 311 310 310 309 309 309 308 308 308 309 309 309 310 310 311 312 312 313 314 314 312 312 311 309 310 310 310 310 309 306 302 298 297 297
315 315 317 317 314 315 318 316 312 314 316 315 316 316 316 316 317 318 317 316 318 323 323 323 323 317 318 326 325 322 325 321 316 316 315 315 317 319 318 317 318 318 318 318 318 318 317 316 315 314 313 313 312 311 311 310 309 309 308 308 308 309 309 309 309 309 310 312 312 312 313 313 312 311 310 309 310 310 310 309 307 304 301 298 297 296
314 317 319 319 318 317 316 310 306 310 316 316 315 316 315 315 317 318 319 319 318 319 317 318 322 318 321 330 326 321 321 315 310 310 309 313 318 317 317 316 317 318 318 318 318 318 317 316 316 315 314 313 312 312 312 311 310 309 309 308 308 308 308 309 309 309 309 310 311 312 311 311 312 311 309 309 310 310 310 308 306 303 299 297 296 296
313 317 318 317 319 319 315 311 306 307 313 315 314 315 316 316 318 320 321 319 318 320 318 318 321 318 320 328 318 308 309 307 307 311 312 314 316 317 316 316 316 317 317 318 319 318 318 317 317 316 315 314 313 312 312 311 311 310 309 309 308 308 308 308 309 309 309 309 311 312 311 310 310 310 309 309 310 310 310 308 305 302 298 296 296 296
314 319 318 316 319 319 317 316 314 311 312 315 317 316 315 317 318 318 319 317 318 321 321 320 321 318 320 325 314 308 313 312 308 310 312 314 316 317 316 316 316 316 316 319 319 318 318 317 317 317 316 315 314 313 312 312 311 310 309 309 308 308 308 308 309 309 309 309 311 312 311 309 309 309 309 309 310 310 309 307 304 301 297 295 295 295
315 318 316 315 317 318 317 318 318 316 314 315 319 318 314 316 317 316 317 318 318 320 320 319 319 317 318 321 318 317 321 318 313 311 311 313 316 317 317 317 316 315 316 318 319 318 318 318 317 317 316 316 315 314 312 312 311 310 309 309 309 308 308 308 308 309 308 309 310 310 309 309 309 310 309 310 310 310 309 307 304 300 297 295 295 295
319 319 315 316 317 316 317 316 318 320 317 316 318 317 314 314 315 316 317 318 318 318 318 318 318 318 318 319 322 322 321 322 321 314 311 314 316 316 317 317 316 314 315 318 319 318 319 318 318 318 317 316 315 314 313 312 311 311 310 309 309 308 308 307 308 308 308 308 309 309 309 309 309 310 310 310 310 310 309 307 304 299 296 295 295 295
321 319 316 317 317 316 317 317 317 320 320 318 317 316 315 314 314 316 317 317 318 318 318 318 317 318 318 317 321 324 323 326 322 312 310 315 317 317 317 317 316 314 315 318 319 318 319 318 318 318 318 317 315 314 314 313 311 311 310 310 309 308 308 307 307 308 308 307 308 309 309 309 309 310 310 310 310 310 309 308 304 299 296 295 295 295
319 318 317 318 317 316 317 316 318 319 319 318 317 316 315 314 314 316 316 316 317 318 318 318 317 318 317 315 317 319 319 319 317 314 314 315 315 316 316 316 316 314 315 318 318 318 318 318 318 318 318 317 316 315 314 313 313 312 311 310 309 308 308 307 307 308 308 307 307 307 308 309 310 310 310 310 310 309 309 308 304 300 296 294 295 295
315 317 317 318 317 317 317 317 318 318 317 317 316 315 315 314 314 315 316 316 316 317 317 317 318 318 316 316 316 316 315 314 314 315 315 314 314 316 317 316 316 315 316 317 318 318 318 318 318 318 318 317 317 315 314 314 314 313 312 310 309 308 307 307 307 307 307 307 306 306 307 308 309 310 310 310 310 309 309 307 304 300 296 294 294 294
312 316 317 317 317 317 316 317 317 316 316 316 316 315 314 314 314 314 315 316 316 316 317 317 318 317 315 315 315 314 314 313 313 314 313 314 316 317 316 317 317 316 316 317 318 318 318 318 318 318 318 318 318 316 315 314 313 313 312 311 309 308 307 307 306 306 307 307 306 306 306 307 309 310 309 310 309 309 308 306 304 300 296 294 294 294
312 314 316 317 317 317 317 318 317 315 314 315 316 317 315 314 314 314 314 315 316 316 317 316 317 317 315 317 316 314 313 312 311 311 313 315 317 316 316 317 317 317 317 317 318 318 317 318 318 318 318 318 317 317 316 315 313 313 312 311 309 308 307 306 306 306 306 306 306 305 306 307 309 309 309 309 309 309 307 305 303 299 296 294 294 294
314 314 315 316 317 318 318 318 317 316 316 316 316 316 315 314 314 314 314 314 315 315 316 317 317 315 316 318 318 317 318 316 312 311 314 315 316 316 317 317 317 317 318 318 318 318 317 317 317 317 317 317 317 317 316 314 313 313 312 311 309 308 307 306 306 306 305 306 306 305 305 307 308 309 309 309 308 308 306 304 302 299 296 294 293 293
315 314 314 314 317 318 318 317 317 317 318 320 318 316 316 315 314 315 315 314 314 314 315 316 316 315 316 316 316 317 318 317 314 314 316 316 316 316 316 316 317 317 317 317 318 317 317 317 317 317 317 317 317 317 315 313 312 312 311 309 308 307 307 306 306 305 305 305 305 305 306 306 307 308 308 308 308 307 306 303 301 298 296 294 293 293
315 314 313 314 316 317 317 317 318 319 319 320 321 319 317 315 315 315 315 314 314 314 314 315 315 315 315 315 314 314 314 314 314 315 316 316 316 316 316 316 316 316 317 317 317 317 317 316 316 317 316 317 317 316 314 313 312 311 310 308 307 306 305 305 305 304 304 304 305 305 306 306 307 307 307 307 307 307 306 304 302 299 296 294 293 293
314 313 313 314 315 317 318 318 319 320 319 320 323 321 317 316 317 316 316 315 314 314 314 314 314 314 314 313 314 314 313 313 313 313 314 315 315 315 315 315 316 316 316 316 316 316 316 316 316 316 316 316 315 315 314 313 312 310 309 308 307 306 305 304 304 304 304 304 304 305 305 306 307 307 307 307 307 306 306 306 304 302 299 296 295 294
314 314 313 314 316 316 318 319 319 319 319 320 321 320 316 316 318 318 317 317 315 314 314 314 314 314 313 313 313 313 313 313 313 314 314 314 314 315 315 315 315 315 315 315 316 315 315 315 315 315 315 315 315 314 314 312 311 309 308 307 306 305 304 303 303 303 303 303 303 304 304 305 307 307 307 307 307 307 307 306 306 304 303 300 298 296
314 314 313 314 316 316 317 319 319 320 320 319 319 318 315 314 315 317 318 318 317 315 313 313 314 314 313 313 312 311 312 314 314 314 314 314 314 314 315 315 315 315 315 315 315 315 314 314 314 315 315 314 314 314 312 311 309 308 307 306 305 304 304 303 303 303 302 303 303 303 303 304 305 306 307 307 307 307 307 307 306 305 303 302 300 299
313 313 313 313 315 316 317 318 319 320 320 319 320 320 315 312 313 316 317 318 318 315 313 312 314 314 313 312 311 311 313 315 315 315 314 314 314 314 314 314 315 315 315 314 314 314 314 313 313 314 314 313 313 313 311 310 309 307 306 306 305 304 304 303 303 303 302 302 302 301 301 302 303 304 305 306 306 306 306 306 305 304 303 301 300 299
312 313 313 313 315 316 316 318 319 318 319 321 322 317 311 310 313 318 320 319 317 315 313 312 312 313 312 312 312 312 314 314 315 315 314 313 313 313 313 314 314 314 314 314 314 313 313 312 313 313 313 312 312 311 310 309 308 307 306 305 305 304 304 304 303 302 302 301 300 300 300 301 301 302 303 304 305 305 305 305 304 302 300 299 298 297
312 313 313 314 315 315 316 318 318 317 321 323 317 309 308 311 316 319 321 319 315 314 314 312 312 313 313 312 312 312 313 314 315 315 313 312 312 313 313 313 313 314 314 313 313 312 312 312 311 311 311 311 310 309 309 308 307 307 306 305 305 304 304 303 302 301 300 300 299 299 299 299 300 301 301 302 303 303 302 302 300 299 298 298 298 297
313 313 314 314 315 315 315 317 317 317 321 319 311 306 309 316 320 319 317 315 314 314 314 314 314 315 315 314 313 313 313 314 314 313 312 312 312 311 312 313 313 313 313 313 313 312 312 311 310 310 309 309 308 308 308 307 307 307 306 306 305 304 303 302 301 300 300 299 298 298 298 299 299 299 299 299 299 299 299 298 298 298 298 298 298 298
314 314 314 314 315 316 316 316 317 318 316 312 309 310 312 316 319 317 314 315 315 314 314 314 315 315 316 315 314 314 314 313 312 312 312 311 311 311 311 312 312 312 313 313 312 311 310 309 309 309 309 308 308 307 307 307 307 307 306 305 304 302 301 301 300 299 299 298 298 298 298 298 298 297 297 297 297 297 297 297 297 297 297 296 295 295
314 314 316 315 315 316 316 316 318 318 313 310 313 316 315 314 315 315 314 315 314 313 313 314 314 315 316 315 315 314 313 312 312 311 311 311 310 310 310 311 311 312 311 311 310 309 309 308 308 308 308 307 307 307 307 307 307 306 306 304 303 302 301 300 300 299 299 298 298 298 297 297 297 297 296 296 296 296 296 295 295 294 293 293 293 292
315 314 315 316 315 316 316 315 314 312 309 310 313 315 314 314 314 314 314 314 314 313 313 313 313 314 314 314 315 314 313 313 312 311 310 310 310 310 310 310 310 310 309 309 308 308 308 308 308 308 308 307 307 307 306 306 306 306 305 304 303 303 302 301 300 300 299 299 298 298 297 297 296 296 295 295 295 294 294 293 293 293 292 292 291 291
314 312 310 313 316 316 315 313 310 308 307 309 312 314 313 314 315 314 313 313 313 314 314 313 314 314 313 313 314 313 313 313 312 311 310 310 309 309 309 309 308 308 308 308 308 308 308 307 307 308 308 308 307 306 306 305 304 304 304 304 303 302 302 302 301 300 299 299 298 298 297 296 296 295 294 294 293 293 293 293 293 292 292 292 292 292
311 309 308 312 315 316 316 316 315 312 310 310 311 312 313 313 313 312 312 313 313 313 313 313 314 313 313 313 313 312 313 313 311 311 310 309 309 309 308 307 307 307 307 307 307 307 307 307 307 308 308 307 306 305 304 304 303 302 303 303 303 302 302 301 301 300 300 299 298 298 297 297 296 296 295 295 294 294 294 293 293 293 293 293 293 293
309 307 307 311 312 313 315 316 313 309 309 309 309 310 310 312 312 311 311 312 313 313 312 312 312 311 311 312 312 312 312 312 311 310 309 309 308 308 307 307 307 307 307 306 306 307 307 306 307 306 306 306 305 304 303 303 302 301 301 301 301 301 300 300 300 299 299 299 298 298 297 297 296 296 296 296 295 295 295 294 294 294 294 294 293 293
306 305 307 310 311 311 313 313 310 308 309 309 309 309 310 311 311 311 311 311 312 312 311 310 310 310 310 311 311 311 311 311 310 310 309 309 308 307 307 307 307 306 306 306 305 305 305 305 305 305 304 304 303 302 301 301 300 299 299 299 298 298 298 298 298 298 298 298 297 297 297 297 296 296 296 296 295 295 294 294 294 293 293 292 292 291
305 306 308 309 310 311 312 312 311 311 311 311 310 311 312 311 310 310 310 311 311 311 311 310 309 310 310 309 309 309 310 310 310 309 309 308 308 307 306 306 306 305 305 305 304 303 302 302 303 302 302 302 300 299 298 297 297 297 297 297 297 296 297 297 297 297 297 297 297 297 296 296 296 295 295 294 294 293 292 292 292 291 291 291 290 290
306 307 308 308 309 310 310 310 310 309 309 310 310 311 311 311 311 310 311 311 311 311 311 310 309 309 309 309 308 308 309 309 310 309 308 307 306 306 305 305 305 304 303 303 302 301 300 300 300 299 299 298 297 296 295 295 295 295 295 295 295 295 296 296 295 296 296 295 295 295 294 294 293 293 292 292 291 291 290 290 290 290 290 289 290 290
Wind_Speed
4 3 2 5 6 7 8 7 5 5 6 7 5 4 3 3 5 5 3 5 1 2 6 7 7 12 14 11 16 21 16 15 21 25 29 32 33 34 34 35 36 36 35 32 31 30 28 29 30 31 31 30 29 29 29 29 29 29 27 26 25 23 21 20 19 19 22 24 22 22 23 23 23 21 21 22 20 18 18 20 20 16 16 19 18 17
4 4 7 9 7 7 6 6 7 6 6 5 5 2 1 3 6 5 2 4 1 3 5 4 5 12 14 12 17 19 11 15 24 26 30 34 35 36 36 38 39 38 37 35 35 34 31 31 31 32 33 32 32 31 31 30 30 30 28 27 25 23 22 20 20 21 22 23 22 20 22 25 24 21 23 24 20 17 18 19 19 17 18 21 21 21
2 4 10 7 9 8 5 6 7 6 5 4 4 2 2 3 4 5 3 4 0 4 4 4 5 11 13 12 17 21 17 21 30 30 33 35 34 36 38 40 41 39 39 38 37 36 35 34 33 34 35 35 34 32 32 31 31 30 29 28 26 24 23 21 21 22 21 23 23 20 23 26 24 22 24 24 20 17 17 18 19 20 21 23 24 22
2 6 8 8 12 9 6 5 7 6 3 2 4 3 2 2 2 3 4 4 1 2 3 4 6 9 10 9 15 23 21 25 33 34 36 37 36 40 42 42 41 41 41 40 38 38 36 35 34 35 37 37 35 34 33 32 32 32 30 29 27 26 24 23 22 22 23 25 25 24 25 25 25 25 25 23 22 20 19 19 20 22 24 24 22 20
5 6 1 7 9 8 6 5 7 5 2 3 4 6 4 4 5 5 3 4 2 3 2 2 7 7 6 8 11 12 9 17 27 28 31 35 36 39 41 41 40 41 41 40 39 37 36 35 34 35 36 37 37 36 35 33 33 33 31 30 27 26 25 24 24 24 26 27 27 27 28 28 29 29 27 26 26 24 20 19 20 22 24 22 20 20
7 5 5 7 4 6 7 4 5 7 3 4 5 9 9 7 6 3 3 5 4 4 2 1 4 6 4 5 9 5 4 11 17 16 23 29 30 32 36 37 38 37 37 36 36 36 35 33 32 33 35 36 37 36 35 34 34 33 31 29 27 26 26 25 25 26 28 28 28 29 29 30 30 29 26 26 25 23 20 19 20 22 23 22 21 22
3 3 5 6 5 6 6 3 5 7 5 3 4 7 9 6 4 3 1 2 1 4 3 2 1 6 5 4 8 6 7 13 12 13 22 28 30 33 35 36 36 34 34 33 33 33 33 32 31 31 33 34 35 35 36 36 35 33 31 29 27 26 26 26 25 26 28 27 27 28 29 28 27 26 25 23 21 20 19 20 22 23 24 23 23 23
3 4 3 5 6 5 5 3 6 8 7 3 3 4 6 7 6 5 4 3 3 3 3 3 4 4 7 6 6 5 8 13 12 14 19 24 30 33 33 33 33 31 30 29 29 28 28 29 29 29 30 30 32 34 36 36 35 33 32 29 28 27 27 27 25 26 28 28 28 29 28 27 27 27 25 23 22 21 20 21 23 25 25 24 24 23
3 6 7 7 5 4 5 4 8 11 5 4 3 5 6 6 5 5 5 3 1 4 4 3 5 2 7 7 3 1 5 10 12 14 15 18 23 26 25 25 24 23 22 20 20 19 20 22 24 25 26 28 31 33 34 34 34 33 32 29 28 28 26 26 26 25 27 29 30 29 27 27 28 28 25 24 23 21 21 22 24 25 25 25 25 24
1 3 7 8 5 6 4 1 6 10 4 4 6 7 6 5 5 5 4 2 3 3 4 6 7 3 6 6 1 1 3 8 11 12 12 16 20 19 17 15 14 14 13 11 11 11 12 14 16 19 23 26 30 31 31 32 33 33 32 30 29 28 27 27 27 26 27 30 32 30 28 27 27 26 25 24 22 20 22 24 25 25 26 26 26 26
1 1 2 4 4 5 6 5 2 4 7 10 8 6 7 5 4 3 2 4 3 4 4 7 10 5 4 5 3 4 4 6 8 7 9 14 16 14 11 10 9 9 7 7 7 7 8 10 12 16 21 25 28 30 31 32 33 33 32 31 30 28 28 28 28 27 27 30 33 33 31 29 26 26 26 26 22 20 25 27 26 27 27 27 28 29
2 1 1 3 5 8 9 6 6 6 8 8 4 4 4 3 4 4 3 3 2 5 3 2 5 3 5 7 4 6 7 6 7 6 7 10 14 14 11 9 8 7 7 7 7 7 8 9 11 14 19 24 27 30 31 32 33 34 33 32 30 29 29 29 29 29 28 30 32 33 33 31 29 29 29 28 24 22 26 29 28 29 29 30 31 32
1 4 2 2 5 8 7 5 5 4 2 4 4 6 4 2 3 3 3 0 2 7 2 2 1 2 8 8 8 12 13 11 10 12 13 14 17 20 18 14 13 12 12 10 9 10 11 11 12 14 18 22 27 30 31 32 33 33 33 33 32 31 30 29 30 31 29 30 30 29 31 31 31 31 29 26 23 21 26 30 30 30 31 33 34 34
3 5 1 4 3 9 9 6 3 2 2 5 5 6 4 2 2 4 4 1 4 6 2 3 3 3 6 6 11 18 19 18 16 20 24 24 26 29 28 24 21 20 19 16 16 17 18 17 16 16 18 21 25 28 30 31 32 33 34 34 33 32 30 29 30 32 32 31 29 29 30 30 32 32 26 22 21 21 26 31 31 31 32 34 36 34
5 6 5 6 4 11 13 8 7 6 5 6 4 5 5 5 5 5 3 3 5 4 3 2 2 4 4 3 8 14 18 21 22 26 28 30 34 35 35 33 30 28 25 23 23 23 22 21 19 18 19 20 23 26 29 31 32 34 35 35 34 33 31 29 30 32 34 33 31 30 31 30 32 31 25 22 22 23 27 31 31 31 32 35 35 33
5 7 6 2 2 13 13 6 7 8 3 3 3 4 4 5 5 1 3 5 3 3 4 2 4 5 5 6 9 9 12 16 19 22 23 28 33 32 34 35 31 30 28 25 23 21 20 20 19 19 19 20 23 24 27 30 31 34 35 35 35 33 31 30 30 32 34 34 32 31 32 33 32 29 25 25 24 25 28 30 30 31 33 35 35 33
3 5 5 4 1 6 5 3 5 5 4 2 3 4 4 4 6 3 2 1 4 2 4 2 5 6 3 7 10 8 10 10 11 15 18 25 29 25 27 30 26 25 24 21 19 17 17 18 19 19 19 21 23 24 27 28 30 32 34 35 35 34 33 31 31 32 34 35 34 32 33 34 31 28 28 28 26 26 29 29 29 31 34 36 35 33
5 3 5 2 1 3 1 3 4 3 4 5 4 6 3 2 3 3 2 2 2 4 5 2 6 6 3 6 5 2 7 10 11 12 15 23 24 22 25 27 23 23 21 17 16 14 14 16 17 18 19 21 22 24 25 27 29 31 33 34 35 35 34 32 31 33 34 36 37 35 34 33 30 29 30 29 27 27 30 31 31 32 35 37 36 34
4 2 5 1 2 3 3 3 2 4 3 5 4 4 4 2 2 2 3 3 2 3 4 4 6 5 5 6 3 3 8 11 13 12 11 16 20 22 27 28 24 21 16 12 10 10 10 12 14 16 18 19 21 23 25 26 28 31 32 34 35 35 33 31 31 33 35 36 37 35 33 32 32 32 32 31 29 29 31 32 32 34 37 38 36 35
3 3 4 2 2 1 3 2 5 1 2 3 2 2 2 2 4 3 3 4 3 3 3 4 6 5 7 7 6 9 11 11 11 9 8 13 19 24 27 26 21 14 9 6 5 7 8 8 11 13 15 17 19 21 24 26 29 31 32 34 36 36 34 33 33 33 35 35 35 35 34 33 33 33 32 30 30 31 32 32 33 35 38 39 37 36
3 3 4 2 3 1 2 5 8 9 6 4 3 4 3 1 2 1 1 2 3 3 2 1 5 10 8 6 8 11 11 11 11 9 10 13 18 23 23 21 16 8 2 3 5 8 8 8 8 10 12 15 17 20 23 26 28 30 32 34 36 37 36 36 35 34 35 35 35 36 36 34 34 34 32 31 31 32 32 33 35 36 39 39 38 36
3 3 4 2 1 4 5 4 5 9 9 8 8 9 9 7 4 3 3 1 2 3 4 3 4 13 8 5 8 10 8 9 10 9 10 14 19 22 19 13 8 4 1 4 7 9 9 8 7 8 11 14 17 20 22 25 27 30 32 34 36 38 38 37 35 35 36 36 36 36 35 35 35 34 32 32 33 32 33 34 36 38 40 40 38 36
5 3 3 4 5 6 5 2 1 4 5 5 5 5 7 7 6 6 6 4 2 2 2 3 2 13 7 6 6 7 6 8 11 10 11 17 21 19 14 9 7 5 1 4 7 8 8 7 8 9 12 14 16 18 21 24 26 29 31 33 35 38 38 37 36 34 35 37 38 38 36 36 36 35 33 33 34 33 34 35 37 39 41 41 39 36
4 2 3 4 3 2 3 3 2 1 0 3 4 2 3 5 5 5 4 4 4 3 2 3 3 12 6 4 4 6 5 10 13 13 16 20 21 16 11 9 8 8 3 2 6 7 6 6 8 10 12 14 16 18 20 23 25 27 30 33 36 37 38 37 36 35 36 37 38 38 37 36 36 36 36 35 35 34 34 36 38 40 42 41 39 37
7 3 5 5 3 3 3 3 2 1 1 3 4 3 5 7 6 3 1 2 2 6 8 6 7 12 6 2 2 5 4 8 13 12 14 17 19 16 10 9 12 11 6 2 6 8 8 7 7 9 12 14 16 18 20 22 25 27 30 32 35 37 37 37 37 36 37 37 39 39 38 37 37 38 38 37 35 35 35 36 38 41 42 42 39 37
9 4 6 7 6 8 7 6 5 4 2 2 4 6 8 10 10 5 2 3 5 9 9 6 9 14 9 3 3 6 3 5 10 11 11 15 18 17 13 13 16 13 8 4 7 9 11 11 11 11 12 14 16 17 19 22 24 27 29 31 33 36 37 38 38 38 38 38 40 40 39 39 39 38 38 38 36 35 34 35 38 41 43 42 40 38
4 2 9 12 12 13 13 10 4 7 6 6 9 10 10 10 11 8 3 5 10 10 6 9 16 20 17 9 6 7 5 5 8 9 11 15 20 21 19 17 19 17 10 6 8 11 14 16 16 15 15 15 16 17 19 21 23 25 28 30 32 35 37 38 39 39 39 39 41 41 40 40 39 39 39 38 37 35 34 35 38 41 43 42 40 39
2 3 10 13 15 16 17 16 7 8 9 13 14 14 12 12 13 12 11 14 14 9 10 17 19 19 22 17 10 8 7 7 8 10 14 19 22 23 21 19 22 22 14 8 11 15 17 19 19 19 20 19 18 18 19 20 22 24 27 29 32 35 37 38 40 41 40 40 41 42 41 40 39 39 38 38 37 36 35 36 38 41 43 43 41 39
2 6 11 12 16 17 18 18 10 9 11 12 15 17 16 16 16 17 20 23 18 12 14 18 15 14 22 23 15 11 10 10 11 16 21 21 20 20 20 20 24 24 16 11 15 20 22 23 23 23 23 23 21 20 20 21 22 23 26 29 32 35 36 38 40 41 42 41 41 42 42 41 40 39 39 38 37 36 36 36 37 40 43 44 42 40
3 7 10 11 14 16 19 19 13 13 12 9 10 15 16 18 21 23 25 26 22 17 16 19 18 17 21 21 14 12 17 20 21 22 21 18 17 20 22 23 26 26 21 17 20 25 27 26 26 26 26 26 25 24 23 22 23 24 26 29 33 35 37 38 40 41 43 42 40 41 42 42 41 40 39 39 37 36 36 36 38 41 44 45 44 42
6 7 8 7 8 12 17 20 17 13 12 10 7 8 13 18 23 26 25 20 16 16 19 21 20 20 21 18 15 15 18 20 20 20 22 24 26 28 29 30 31 30 28 26 28 30 30 29 28 28 28 28 27 27 27 25 24 24 26 29 33 35 36 38 39 40 42 43 40 40 42 42 41 40 39 38 37 36 36 36 39 42 44 46 46 44
6 6 6 5 7 10 14 20 17 8 6 8 8 9 16 21 21 19 17 14 16 18 20 18 16 19 18 12 11 14 12 13 15 19 25 31 35 35 36 37 36 36 36 37 38 36 33 32 30 29 28 27 28 29 28 27 26 26 26 29 32 35 37 38 39 39 41 42 41 39 41 42 41 40 39 38 37 36 36 37 40 43 46 47 47 46
5 4 5 6 7 10 14 17 12 4 3 7 12 18 24 22 14 10 11 17 20 18 15 13 15 20 17 7 7 10 8 10 15 22 27 33 36 38 41 41 41 41 42 44 44 42 39 36 31 29 28 27 28 29 28 27 26 25 26 28 30 33 35 36 37 39 40 41 41 39 39 40 41 40 39 38 37 36 36 38 40 43 45 47 47 45
6 6 5 4 4 9 14 12 6 5 8 12 14 20 23 19 14 14 17 21 20 14 12 13 14 18 19 14 14 13 9 12 20 26 31 35 36 37 40 41 41 42 44 45 45 44 41 35 30 28 28 27 28 29 28 25 24 24 25 27 28 31 33 35 36 38 39 40 41 40 38 38 40 40 39 39 37 36 36 36 38 41 43 44 45 45
7 8 6 4 3 5 7 7 6 9 11 9 8 11 14 16 19 22 23 23 20 16 16 18 19 21 21 20 20 18 17 21 27 31 35 36 36 37 36 37 40 41 43 45 43 41 37 32 29 28 27 27 28 28 27 24 23 24 25 27 27 29 31 33 35 36 38 39 41 40 40 39 39 40 40 39 37 36 35 35 35 37 40 41 43 43
8 7 4 4 4 3 3 7 9 7 3 4 7 5 6 9 14 16 18 21 21 19 18 19 24 26 24 25 29 27 24 23 24 30 37 37 37 39 38 39 42 43 43 43 41 39 36 31 28 28 27 28 27 26 25 22 22 23 24 25 26 26 28 30 32 34 36 38 39 40 41 41 40 40 39 38 37 36 36 35 35 36 37 40 41 43
10 8 4 5 6 5 7 9 8 6 6 7 10 7 6 8 11 11 13 17 18 18 18 19 24 27 23 27 34 29 19 16 17 30 44 42 38 43 44 45 48 45 44 44 41 39 36 31 29 28 28 28 27 25 24 21 21 22 23 24 25 25 25 27 29 30 32 34 35 37 39 40 40 40 39 38 38 37 36 36 36 36 38 40 41 42
12 10 8 7 5 6 8 8 7 7 8 12 16 12 9 12 12 10 9 12 13 17 23 23 24 24 18 21 28 19 9 9 10 23 39 38 34 40 40 40 43 41 39 41 40 39 37 32 30 29 28 28 26 23 22 21 20 21 22 22 22 22 23 24 25 26 27 28 30 32 35 38 39 39 39 38 38 37 36 36 37 37 38 38 38 38
15 12 10 8 5 6 7 8 8 7 7 11 14 9 9 16 14 9 5 11 13 17 23 21 17 18 16 21 24 13 6 8 10 20 35 31 24 26 26 27 29 28 28 32 34 35 34 30 28 28 26 26 24 23 22 20 20 20 20 19 19 19 21 21 21 21 21 23 25 28 31 33 35 36 36 35 35 35 34 35 35 35 35 34 34 34
14 10 9 8 8 8 8 8 7 5 6 8 7 4 9 20 19 11 5 11 10 10 16 19 16 19 25 30 25 11 8 12 15 26 35 26 17 19 18 18 19 18 21 25 27 29 29 26 25 26 24 24 23 21 20 19 19 19 17 17 18 18 18 17 16 16 17 19 20 23 24 26 27 29 29 29 30 30 30 31 31 31 31 30 30 31
9 8 8 10 11 11 11 11 6 3 6 7 4 7 14 18 13 7 9 7 2 5 15 24 27 30 34 33 22 14 20 32 36 37 32 21 17 17 14 14 15 15 18 20 21 22 23 22 22 21 20 21 20 19 18 18 18 18 17 17 17 16 14 13 14 15 15 16 17 18 19 20 21 22 22 23 24 25 26 27 27 27 26 26 26 27
6 6 6 9 11 10 10 10 7 5 6 5 7 12 15 10 4 8 6 1 2 8 15 24 30 33 36 35 28 27 34 42 42 40 34 27 23 20 16 15 15 15 15 16 17 19 20 20 20 20 19 19 18 17 18 18 18 19 18 17 16 14 14 14 14 15 15 15 16 16 16 17 17 18 19 20 21 22 22 22 22 22 21 21 22 22
7 6 5 6 7 7 7 8 7 7 5 11 14 6 5 6 6 3 2 5 10 12 15 22 26 28 31 33 34 34 36 35 32 32 33 31 27 23 20 18 15 15 16 17 18 19 19 19 19 20 19 19 19 19 19 19 19 18 17 16 15 16 16 16 16 15 15 15 15 15 16 16 16 17 18 18 18 18 19 19 19 19 19 19 20 20
6 6 5 5 6 6 6 8 6 3 7 21 19 7 10 18 17 10 7 12 15 14 16 20 23 24 27 30 30 29 29 29 28 28 27 25 24 22 20 18 17 18 18 18 19 19 18 18 19 20 20 20 20 20 18 18 17 16 16 16 17 18 18 17 17 17 17 17 16 16 17 17 17 17 17 17 18 18 18 18 18 18 18 18 19 19
8 8 5 4 6 6 5 6 4 1 10 24 22 15 20 29 33 31 25 22 20 19 17 17 19 20 22 25 25 24 24 26 27 26 24 22 21 19 18 18 18 18 18 18 18 18 18 19 20 21 22 21 19 18 17 16 15 15 17 18 18 19 19 19 19 18 18 18 18 18 18 18 18 18 18 18 18 18 18 18 18 18 18 18 18 18
7 8 4 2 3 4 4 6 5 2 8 20 24 23 25 30 35 37 35 30 27 24 21 21 22 19 18 20 23 25 26 27 26 25 23 22 20 18 18 18 18 17 17 18 19 20 20 19 20 20 20 19 18 17 16 16 15 15 17 18 18 18 18 18 18 18 18 18 18 18 19 19 19 19 19 18 18 17 17 17 16 16 17 17 17 17
4 5 4 3 4 6 7 7 10 14 17 22 27 29 31 34 34 34 35 35 33 29 26 26 25 22 19 21 23 25 27 27 26 25 23 21 20 19 18 18 18 18 18 19 20 20 20 20 19 19 18 18 18 18 17 18 17 16 17 17 17 17 17 17 17 17 17 18 18 18 19 19 19 19 18 18 18 17 17 17 16 16 16 15 15 15
4 6 4 4 6 6 5 5 10 17 21 24 26 28 31 34 34 30 30 34 35 33 31 28 25 23 22 22 23 25 26 27 27 25 23 21 20 19 19 20 20 20 19 19 19 20 19 18 18 18 17 18 18 18 18 18 17 17 16 16 16 16 17 17 17 16 17 17 17 18 18 17 17 17 17 17 17 16 16 16 15 14 13 12 12 12
3 5 4 5 6 7 7 7 9 10 11 16 24 30 34 35 33 29 29 30 32 35 35 32 27 24 22 23 23 25 26 27 25 23 22 21 21 21 22 22 21 21 20 20 19 18 18 17 18 18 18 18 18 18 17 17 17 17 17 16 16 17 17 18 18 17 17 18 17 17 17 17 17 17 16 16 16 15 15 14 13 12 12 11 11 11
4 4 3 3 6 7 6 8 10 7 6 13 22 29 34 36 33 31 31 30 31 35 35 33 30 26 23 23 23 23 24 24 23 21 21 22 22 23 24 24 23 22 21 21 21 20 19 18 18 18 18 18 18 18 18 18 18 19 18 18 17 17 17 18 19 19 19 18 18 18 18 18 18 18 17 17 16 16 15 15 14 14 13 13 13 12
9 8 7 5 7 8 10 15 15 8 7 18 26 26 26 28 29 32 36 36 36 35 33 31 31 29 27 26 24 23 23 22 22 22 22 23 24 24 24 24 23 23 23 23 23 22 21 20 19 19 19 20 21 20 20 20 20 20 20 19 18 18 17 17 17 18 19 19 19 19 18 18 18 18 17 17 16 15 14 14 14 13 13 12 11 11
Wind_Direction
107 105 157 212 208 193 195 178 152 142 120 117 124 118 156 199 268 246 248 290 188 180 257 238 238 264 268 268 270 272 270 257 258 261 262 264 265 265 265 265 264 264 265 267 265 261 257 253 251 249 248 247 246 244 242 239 238 239 238 237 236 234 229 223 221 213 209 217 219 209 211 213 210 214 216 212 213 213 210 215 217 216 219 216 210 215
94 142 226 227 193 174 178 142 114 104 89 92 121 135 219 215 258 250 233 306 210 180 266 273 263 266 265 269 272 269 258 248 251 253 258 261 264 265 265 266 266 266 266 266 265 263 259 255 251 248 247 246 244 242 240 238 237 239 237 235 234 231 228 222 215 212 213 217 218 216 215 208 205 215 218 211 209 211 212 214 215 220 220 215 215 222
74 219 242 206 131 111 97 111 117 111 94 82 115 134 253 241 273 283 295 328 6 186 264 309 286 266 265 271 272 265 252 253 256 253 257 261 262 265 266 267 268 268 268 266 265 263 260 256 251 248 246 245 243 241 240 238 237 238 236 234 231 227 225 219 212 212 211 210 214 221 216 207 209 218 213 209 214 221 227 225 222 229 227 218 216 217
166 249 251 172 138 109 74 96 108 104 110 118 135 149 235 245 274 283 292 318 295 205 274 312 295 273 266 266 267 264 255 259 263 259 259 260 260 263 265 266 267 269 270 270 268 265 261 257 252 248 246 245 242 240 239 238 237 237 236 234 229 224 221 216 212 211 207 207 214 214 211 217 225 220 212 217 226 225 228 229 226 229 227 217 210 200
221 252 207 133 140 124 108 122 127 134 211 246 187 184 209 221 217 234 289 320 319 333 348 312 301 286 262 252 257 269 270 264 266 263 260 259 259 262 264 265 265 266 269 271 271 269 265 260 255 251 248 246 244 242 242 241 238 237 235 232 229 222 217 215 212 208 206 209 212 210 212 221 221 214 215 223 223 217 221 225 225 225 219 206 194 185
253 229 134 106 100 119 123 152 173 161 191 280 231 205 211 215 213 227 349 3 352 329 330 10 294 283 288 258 251 281 321 274 268 265 262 260 260 261 263 266 267 267 269 270 271 270 267 264 258 252 248 246 246 245 244 242 238 236 234 231 229 222 216 215 211 206 208 211 214 216 216 213 209 210 217 219 215 212 217 226 228 221 206 193 186 182
241 189 136 120 124 130 127 175 216 170 144 279 255 210 209 194 173 190 106 43 290 272 267 107 217 278 294 259 252 276 283 273 275 271 265 262 261 260 261 265 268 269 270 271 271 269 267 264 258 252 249 247 247 244 241 238 234 232 232 230 227 222 217 215 211 207 207 210 214 216 213 213 217 220 218 214 215 219 226 231 229 214 196 187 185 181
166 158 121 121 124 128 144 198 220 164 140 239 257 162 164 160 175 187 153 176 238 275 275 148 141 280 287 254 249 271 273 278 283 274 269 263 260 261 263 265 268 270 273 273 272 269 267 264 260 256 252 249 246 242 238 235 232 230 229 228 226 222 216 214 213 209 208 211 214 212 210 219 228 226 220 220 224 228 230 225 217 205 192 187 184 180
151 177 189 163 144 168 188 214 191 158 146 249 209 118 131 147 157 136 124 176 302 349 297 201 142 242 277 268 265 265 263 274 274 268 269 268 267 270 271 269 270 270 269 269 268 268 266 264 261 258 254 249 245 241 240 237 233 229 226 226 223 220 215 212 213 211 208 210 212 210 213 222 225 220 219 222 224 226 221 211 206 200 191 187 184 182
101 189 193 162 157 198 200 271 184 169 171 186 137 96 83 83 81 89 110 120 63 331 264 186 162 203 274 270 210 159 256 257 260 264 269 273 275 278 279 274 266 261 258 261 266 267 267 264 261 255 248 245 242 241 240 237 231 226 225 224 222 220 215 210 212 212 209 210 212 212 215 219 221 218 215 215 217 219 212 205 204 199 192 189 186 184
21 73 163 163 170 167 127 65 54 133 138 137 118 77 61 45 42 60 54 77 79 286 266 185 186 187 274 271 206 202 228 220 231 256 271 276 278 277 274 268 261 255 253 262 270 269 267 263 255 245 241 239 239 238 237 235 230 225 223 223 223 221 215 211 211 211 210 212 214 216 215 215 219 218 215 214 217 217 210 205 204 201 196 191 187 184
343 84 202 190 153 123 101 67 39 70 117 120 94 88 81 357 8 29 349 45 133 247 275 211 211 187 239 254 241 246 259 234 215 233 254 266 275 275 266 255 257 264 266 266 267 269 268 265 259 248 240 235 233 233 233 232 228 224 222 220 221 220 216 212 210 210 212 211 213 217 216 217 222 219 214 217 223 223 212 206 205 204 199 192 188 185
260 229 236 148 159 150 118 75 45 24 57 95 98 113 101 328 348 345 285 135 221 246 238 140 183 238 244 251 259 263 266 251 224 227 241 249 261 269 268 261 258 264 272 273 267 268 267 267 267 259 247 236 231 231 231 231 228 223 221 219 219 220 217 212 209 210 211 209 212 215 214 219 223 215 211 218 228 228 216 209 208 206 201 193 188 186
268 293 218 140 200 189 164 142 151 219 195 160 147 142 140 149 197 252 258 265 267 264 243 164 170 245 269 263 244 243 249 249 242 245 252 257 261 267 270 268 266 267 271 272 269 272 274 272 270 263 253 241 235 232 230 231 229 224 221 218 217 218 217 213 210 209 208 209 211 212 216 223 217 208 210 223 233 232 219 211 210 209 203 195 191 188
218 280 206 174 192 184 184 190 166 142 156 183 158 138 161 169 179 215 218 214 253 281 283 235 191 203 222 259 242 241 255 260 257 256 258 262 264 266 268 268 267 267 270 272 272 275 277 274 269 261 254 245 239 234 231 230 229 225 222 219 217 217 217 216 212 207 207 209 210 213 219 218 209 207 217 230 237 231 218 212 210 211 206 198 194 192
204 261 241 234 158 167 181 190 131 113 138 207 119 120 197 194 156 163 202 180 183 313 302 247 228 215 211 273 269 255 265 266 262 262 262 261 260 262 264 263 263 267 272 276 277 278 275 270 264 256 252 246 239 234 232 231 228 226 223 220 219 218 218 218 213 208 208 209 211 217 216 207 205 214 223 230 234 225 215 214 214 212 207 201 197 196
175 269 293 351 45 170 182 175 135 141 179 163 142 178 214 174 121 110 235 113 87 258 275 232 251 278 312 283 264 247 260 271 272 269 260 254 255 258 260 261 265 269 274 280 283 283 274 265 260 255 250 246 241 235 232 231 229 228 225 222 220 218 217 218 214 210 209 209 211 215 210 204 211 221 225 230 231 219 212 215 216 214 208 203 200 200
168 255 305 41 181 260 327 95 80 53 122 129 184 201 172 114 100 109 205 353 43 246 271 261 251 279 300 278 288 275 259 264 262 258 255 257 258 258 259 262 268 271 277 287 289 284 274 265 259 254 250 246 243 239 236 234 233 230 227 224 221 220 220 220 215 210 211 210 208 210 210 212 220 226 227 230 226 217 212 214 215 214 209 205 203 203
160 239 299 43 191 276 15 109 101 10 73 129 185 182 127 157 199 123 165 199 222 243 275 290 283 270 224 235 270 225 228 241 248 251 256 259 257 257 259 259 263 269 281 295 293 283 274 267 262 257 253 248 243 240 236 234 233 231 228 225 223 224 225 224 219 212 212 213 209 211 215 220 224 224 225 227 222 214 213 215 216 213 210 207 206 206
149 200 274 325 255 294 38 168 191 201 36 60 87 133 120 171 182 167 158 174 197 219 257 303 318 276 225 202 200 214 219 223 235 246 246 249 252 252 252 254 259 266 282 306 316 306 287 268 262 258 254 250 245 241 236 233 232 231 230 226 223 223 223 223 222 216 213 214 214 216 219 221 222 222 223 224 218 213 214 217 217 214 211 209 208 209
112 204 241 313 323 188 177 214 195 178 167 156 169 179 192 174 128 175 171 128 148 167 202 280 299 273 250 178 185 215 224 219 220 230 235 239 247 248 244 249 257 253 262 341 2 345 311 276 260 254 250 246 241 238 235 233 232 231 231 228 224 223 222 222 222 218 214 215 217 219 219 220 221 223 226 223 215 214 216 217 217 215 212 211 211 211
168 196 192 179 233 200 214 242 200 190 186 183 190 195 196 182 149 182 226 209 126 145 180 175 262 273 259 159 190 214 214 218 218 229 246 235 232 243 247 242 236 212 163 18 16 358 327 296 273 259 250 244 238 236 234 232 232 231 230 229 226 224 225 224 223 219 215 215 217 219 220 220 221 224 225 220 215 215 216 217 217 215 213 212 212 212
164 131 153 197 217 213 232 285 187 226 225 209 210 204 197 188 170 180 203 211 170 162 178 115 242 269 253 150 191 219 213 234 225 214 240 244 235 240 247 228 202 196 178 22 5 352 337 312 291 273 257 246 239 237 235 233 232 231 231 230 228 226 227 226 225 221 217 216 218 219 220 221 222 225 223 218 216 217 217 218 217 215 214 214 213 213
139 134 198 229 263 290 307 335 23 35 82 234 242 180 160 194 185 171 181 183 166 178 179 115 234 261 263 130 201 239 250 265 251 215 216 238 245 243 239 226 212 204 193 360 338 330 332 315 295 281 267 256 244 237 235 234 234 232 231 231 230 229 229 227 226 223 219 217 218 218 220 222 224 225 223 219 219 220 219 218 217 216 215 214 214 214
166 190 204 219 280 315 318 311 278 252 139 225 236 187 189 194 160 119 141 160 182 209 192 178 236 253 276 25 231 235 241 264 264 239 218 230 243 245 242 238 228 213 202 288 309 308 312 306 290 279 273 268 258 245 238 235 235 233 231 232 232 231 230 229 227 225 221 218 219 220 222 224 224 223 221 220 221 222 221 219 218 217 216 215 215 215
173 191 185 194 231 233 231 238 223 196 158 217 229 200 202 192 169 172 188 161 219 226 195 187 241 251 267 315 247 234 240 260 258 249 237 236 241 248 248 236 231 223 209 247 286 297 299 295 288 281 276 271 266 257 246 238 236 235 233 233 233 233 232 230 227 226 224 221 220 222 224 224 223 221 221 221 223 224 223 220 219 217 216 216 216 216
160 229 196 197 214 221 234 242 196 126 142 203 218 201 196 196 186 185 183 194 220 229 215 215 233 247 258 253 229 232 233 247 256 251 243 239 239 246 248 238 241 243 229 236 275 286 288 287 286 287 283 276 269 262 255 245 239 238 237 234 233 233 233 232 229 227 226 224 221 222 224 224 222 222 222 224 226 226 225 222 220 218 217 216 217 218
108 243 212 214 220 222 239 242 199 142 177 203 208 201 194 194 187 186 208 222 219 220 237 232 226 243 258 249 226 227 230 234 253 255 246 239 234 241 248 244 249 253 240 234 272 281 282 281 281 284 286 281 272 264 258 252 245 241 239 237 235 233 233 233 231 228 228 227 222 221 223 224 223 224 225 227 228 228 227 224 220 218 218 217 219 219
158 227 214 219 225 227 240 242 208 177 202 205 200 201 195 188 188 196 215 225 219 212 236 244 231 232 252 254 238 224 226 225 232 238 241 242 238 245 252 247 249 254 243 239 269 279 278 276 276 280 284 283 277 268 259 254 250 244 240 238 236 234 233 234 232 230 229 229 225 221 222 223 224 225 226 228 229 229 228 225 221 218 218 219 220 221
159 229 225 220 228 232 239 242 221 199 216 224 207 202 194 189 194 204 216 223 223 223 237 252 252 242 247 254 248 230 228 230 234 237 241 251 256 256 254 246 245 251 248 251 269 275 273 271 272 276 279 281 280 274 265 258 253 250 245 240 237 234 232 232 233 231 230 230 229 223 221 223 225 226 227 228 229 230 229 226 221 218 218 219 221 221
164 219 230 213 233 241 240 246 238 212 215 229 223 206 203 202 204 210 218 221 222 230 237 243 254 257 253 253 255 247 232 225 232 238 242 250 254 254 252 244 242 248 254 262 272 271 267 264 265 270 274 279 282 279 272 263 256 252 251 245 240 236 233 231 232 232 232 232 231 226 222 222 224 226 228 228 229 230 229 226 222 219 219 220 221 222
172 218 227 204 232 240 237 246 245 216 199 231 234 215 212 214 213 213 215 215 212 219 230 236 245 254 255 251 252 247 220 205 220 225 231 241 243 245 246 244 244 249 256 264 270 270 266 263 263 267 270 275 279 278 275 268 259 255 254 250 243 238 235 233 232 233 233 232 231 228 223 221 222 224 225 226 227 228 227 225 222 219 219 220 222 223
168 204 219 213 232 239 238 243 241 176 159 232 233 224 220 218 216 217 223 225 219 212 217 227 233 246 254 249 240 239 199 191 216 216 222 235 239 240 243 243 246 251 256 263 267 269 269 267 265 265 266 271 275 275 275 269 261 260 259 255 248 241 237 235 233 233 233 233 232 230 226 223 223 225 225 225 227 227 226 225 223 221 221 221 223 225
183 201 215 210 223 242 243 242 230 198 219 232 230 229 229 220 207 214 226 228 225 216 224 239 243 251 255 246 242 244 217 213 229 230 234 240 241 243 245 246 250 254 257 261 264 267 268 266 263 262 263 267 270 270 271 265 259 258 255 252 249 244 238 236 234 232 232 232 232 230 228 225 225 227 227 226 227 227 227 227 225 224 223 224 225 227
195 206 211 208 220 246 246 237 231 226 228 241 246 235 232 221 211 217 228 233 229 220 227 244 249 250 251 249 252 252 242 241 245 246 247 248 247 248 249 251 254 257 259 261 263 265 265 263 262 262 261 265 267 267 268 264 257 251 246 244 244 241 237 235 234 233 232 231 231 230 228 227 226 227 228 227 229 229 230 229 228 227 227 227 228 230
204 207 206 211 213 222 222 218 229 242 262 288 276 248 220 219 216 220 234 242 235 223 221 231 241 246 249 253 254 252 252 259 264 261 257 253 252 253 253 256 259 259 261 263 264 265 265 264 264 263 262 264 264 264 264 260 250 243 239 239 239 236 235 234 233 234 232 231 232 230 229 229 228 229 229 229 230 231 232 232 231 230 230 229 230 231
208 211 211 215 207 208 226 228 238 276 300 274 255 232 184 195 203 201 225 244 237 223 219 223 236 243 244 249 254 254 260 275 281 271 264 259 257 258 258 260 263 264 265 267 267 267 266 265 261 258 257 258 258 259 258 250 240 234 230 230 230 228 229 230 230 232 232 232 234 234 232 231 230 230 230 230 231 232 234 235 234 233 232 232 232 233
210 210 207 216 210 202 225 237 240 249 250 243 243 232 187 188 194 182 206 245 247 226 217 218 232 240 241 253 257 253 253 266 271 269 266 263 260 260 261 263 266 267 268 268 267 266 264 262 258 255 253 253 254 253 248 238 230 225 222 222 222 221 223 224 225 227 230 232 235 235 234 232 231 231 231 232 233 234 235 237 237 236 236 235 236 237
211 213 211 219 216 203 218 233 229 229 235 237 243 239 180 174 166 135 172 239 253 237 218 212 229 240 239 247 246 225 201 242 253 263 265 266 264 263 263 265 267 267 266 265 263 263 262 260 257 253 251 250 248 244 237 229 221 217 215 215 213 213 216 217 218 221 225 229 232 233 233 233 232 233 233 234 236 237 238 240 240 240 240 240 240 240
207 212 217 221 223 219 223 232 232 238 244 233 237 238 171 157 141 122 202 238 251 235 202 190 206 227 232 239 239 212 192 225 241 257 263 265 264 261 260 263 264 263 261 260 259 259 259 257 254 252 249 245 238 231 226 219 212 208 205 202 203 205 207 207 208 213 217 221 225 227 228 229 230 232 234 236 238 239 240 242 242 243 242 241 240 240
203 207 212 219 227 226 225 236 247 247 238 232 203 170 155 139 133 179 223 228 202 172 179 183 195 214 226 233 231 211 221 233 239 249 257 260 259 257 256 257 260 259 256 253 253 254 255 254 250 244 238 232 225 218 213 205 198 192 188 189 192 191 188 189 193 199 202 206 211 215 218 220 223 226 228 231 234 236 238 240 241 241 240 239 239 239
194 201 207 215 226 228 229 239 247 250 239 195 146 156 154 144 192 221 212 261 235 197 193 193 200 212 224 229 228 227 234 239 241 245 251 255 256 256 255 256 256 252 247 244 245 247 247 243 236 225 218 214 208 201 196 187 182 180 179 181 180 174 173 178 181 185 188 191 197 202 206 208 210 214 218 221 225 229 231 233 233 233 233 234 236 239
180 184 203 205 207 220 235 230 227 253 230 142 131 138 174 198 229 195 116 273 254 231 218 211 210 218 226 229 233 237 240 242 243 245 248 250 252 252 253 252 247 240 238 239 241 240 234 227 220 210 203 197 188 183 181 177 178 179 177 174 170 168 172 173 173 175 178 182 187 190 192 195 198 203 207 209 212 216 217 219 220 221 224 228 233 237
187 189 203 198 192 202 225 221 214 243 172 155 152 168 211 217 235 250 250 252 250 243 235 225 222 226 229 233 238 241 243 244 246 248 248 248 249 249 246 243 239 236 236 234 231 225 215 208 204 196 188 183 178 177 178 178 180 179 174 171 170 170 171 169 169 172 173 174 177 179 181 183 187 192 195 197 199 203 206 210 213 216 220 224 227 232
202 197 187 195 213 209 212 219 214 151 178 182 186 201 213 224 239 244 242 247 251 248 243 240 239 238 237 242 247 248 251 253 251 249 248 247 247 245 239 235 233 231 227 220 213 205 196 193 192 185 179 176 176 176 176 176 177 175 173 172 172 171 171 171 172 172 171 172 173 174 176 178 180 184 187 190 195 199 201 205 208 209 213 216 219 223
227 214 176 122 240 248 241 234 239 246 210 208 215 223 229 236 241 237 235 239 244 245 246 248 250 248 245 250 253 252 255 257 255 251 247 243 239 235 231 227 220 213 208 202 197 191 184 182 182 181 179 177 174 173 170 166 165 169 172 171 170 170 171 172 172 171 170 172 172 172 175 176 177 180 182 185 189 192 195 199 202 204 207 210 213 218
273 247 215 177 205 223 220 215 222 230 230 227 227 229 231 235 236 234 232 234 238 242 246 248 251 250 246 247 251 253 255 255 252 247 242 236 231 225 218 213 205 198 194 191 189 186 181 179 180 181 180 177 171 167 166 164 161 164 168 168 168 169 170 170 171 171 171 171 172 173 175 176 178 180 181 182 185 187 190 193 197 201 205 208 212 216
331 341 308 241 225 225 228 234 237 238 240 239 238 238 236 235 235 236 236 237 240 243 245 249 251 250 247 247 248 251 253 252 248 244 237 227 220 213 206 200 195 191 185 183 184 183 179 179 180 177 175 173 168 165 165 165 163 162 165 166 166 166 166 165 165 167 169 170 172 173 174 175 178 179 180 182 185 187 190 193 196 200 203 206 209 213
271 323 306 260 257 262 264 268 267 268 267 254 246 246 246 243 240 240 241 242 242 243 244 247 249 249 248 247 243 243 245 246 244 238 229 217 207 200 196 193 190 187 183 180 178 175 172 174 174 169 168 168 165 164 164 163 162 160 160 160 160 159 160 161 162 165 167 168 169 170 171 172 174 175 177 180 180 181 184 187 189 191 192 194 197 199
205 243 251 258 266 259 251 253 254 258 271 259 249 248 250 250 246 242 243 243 242 243 243 243 243 244 243 238 234 234 237 237 231 223 217 209 201 196 193 190 187 184 179 175 170 165 164 168 168 166 166 165 162 161 159 158 158 156 155 156 156 158 161 163 163 164 165 165 166 167 167 168 169 170 172 174 175 176 177 178 180 183 185 189 193 197
220 225 219 228 247 251 266 278 278 274 271 271 270 267 263 260 253 245 244 243 243 244 244 240 239 239 235 230 227 227 229 228 221 212 207 203 198 194 191 188 185 180 175 171 167 163 162 165 166 166 166 163 158 156 156 157 157 156 156 157 158 160 163 165 165 163 162 162 163 163 163 164 165 166 168 169 171 173 174 176 179 182 185 190 196 201